Weather History for Richmond, KY

Change the Weather History Date:

Sunday, May 12, 2013

  Actual Average (KLOZ) Record (KLOZ)
Temperature  
Mean Temperature 50 °F 64 °F  
Max Temperature 59 °F 75 °F 89 °F (2000)
Min Temperature 41 °F 52 °F 33 °F (1989)
Degree Days  
Heating Degree Days 15 4  
Month to date heating degree days 52  
Since 1 July heating degree days 4153  
Cooling Degree Days 0 2  
Month to date cooling degree days 19  
Year to date cooling degree days 45  
Moisture  
Dew Point 35 °F    
Average Humidity 58    
Maximum Humidity 94    
Minimum Humidity 34    
Precipitation  
Precipitation 0.00 in 0.18 in 0.76 in (1978)
Month to date precipitation 1.96  
Year to date precipitation 17.31  
Sea Level Pressure  
Sea Level Pressure 30.08 in    
Wind  
Wind Speed 7 mph (WNW)    
Max Wind Speed 17 mph    
Max Gust Speed 21 mph    
Visibility 10 miles    
Events      
T = Trace of Precipitation, MM = Missing Value Source: NWS Daily Summary

Daily Weather History Graph

Daily Weather History Graph

Search for Another Location

Airport:

Trip Planner

Search our weather history database for the weather conditions in past years. The results will help you decide how hot, cold, wet, or windy it might be!

Date:

Astronomy

May. 12, 2013 Rise Set
Actual Time 6:30 AM EDT 8:37 PM EDT
Civil Twilight 6:01 AM EDT 9:06 PM EDT
Nautical Twilight 5:25 AM EDT 9:42 PM EDT
Astronomical Twilight 4:47 AM EDT 10:21 PM EDT
Moon 8:25 AM EDT (5/12) 11:03 PM EDT (5/12)
Length of Visible Light 15h 05m
Length of Day
14h 07m
Waxing Crescent, 6% of the Moon is Illuminated
May 12
Waxing Crescent
May 18
First Quarter
May 25
Full
May 31
Last Quarter
Jun 8
New

Hourly Weather History & Observations

Time (EDT) Temp. Windchill Dew Point Humidity Pressure Visibility Wind Dir Wind Speed Gust Speed Precip Events Conditions
12:15 AM 51.8 °F - 50.0 °F 94% 29.99 in 10.0 mi West 5.8 mph - N/A   Overcast
12:35 AM 53.6 °F - 50.0 °F 88% 30.00 in 10.0 mi WNW 9.2 mph - N/A   Overcast
12:55 AM 53.6 °F - 48.2 °F 82% 30.01 in 10.0 mi WNW 11.5 mph - N/A   Overcast
1:15 AM 51.8 °F - 44.6 °F 76% 30.01 in 10.0 mi NW 12.7 mph 18.4 mph N/A   Overcast
1:35 AM 51.8 °F - 41.0 °F 67% 30.01 in 10.0 mi NW 12.7 mph 19.6 mph N/A   Scattered Clouds
1:55 AM 51.8 °F - 39.2 °F 62% 30.02 in 10.0 mi NW 12.7 mph - N/A   Scattered Clouds
2:15 AM 50.0 °F - 39.2 °F 66% 30.02 in 10.0 mi NW 10.4 mph - N/A   Scattered Clouds
2:35 AM 48.2 °F - 39.2 °F 71% 30.02 in 10.0 mi NW 8.1 mph - N/A   Scattered Clouds
2:55 AM 48.2 °F - 37.4 °F 66% 30.03 in 10.0 mi NNW 6.9 mph - N/A   Scattered Clouds
3:15 AM 46.4 °F 44.3 °F 39.2 °F 76% 30.03 in 10.0 mi NNW 4.6 mph - N/A   Scattered Clouds
3:35 AM 46.4 °F - 39.2 °F 76% 30.03 in 10.0 mi Calm Calm - N/A   Mostly Cloudy
3:55 AM 46.4 °F 45.2 °F 39.2 °F 76% 30.03 in 10.0 mi NNW 3.5 mph - N/A   Scattered Clouds
4:15 AM 44.6 °F 43.1 °F 39.2 °F 81% 30.05 in 10.0 mi NNW 3.5 mph - N/A   Scattered Clouds
4:35 AM 44.6 °F - 37.4 °F 76% 30.05 in 10.0 mi Calm Calm - N/A   Scattered Clouds
4:55 AM 42.8 °F - 37.4 °F 81% 30.05 in 10.0 mi Calm Calm - N/A   Mostly Cloudy
5:35 AM 42.8 °F - 37.4 °F 81% 30.05 in 10.0 mi Calm Calm - N/A   Mostly Cloudy
5:55 AM 42.8 °F - 37.4 °F 81% 30.06 in 10.0 mi Calm Calm - N/A   Scattered Clouds
6:15 AM 41.0 °F - 37.4 °F 87% 30.06 in 10.0 mi Calm Calm - N/A   Mostly Cloudy
6:35 AM 42.8 °F - 35.6 °F 76% 30.06 in 10.0 mi Calm Calm - N/A   Scattered Clouds
6:55 AM 41.0 °F 38.0 °F 35.6 °F 81% 30.07 in 10.0 mi WSW 4.6 mph - N/A   Scattered Clouds
7:15 AM 41.0 °F - 37.4 °F 87% 30.08 in 10.0 mi Calm Calm - N/A   Scattered Clouds
7:35 AM 42.8 °F 41.1 °F 39.2 °F 87% 30.08 in 10.0 mi WSW 3.5 mph - N/A   Clear
7:55 AM 44.6 °F - 39.2 °F 81% 30.08 in 10.0 mi Calm Calm - N/A   Clear
8:15 AM 44.6 °F 42.2 °F 39.2 °F 81% 30.09 in 10.0 mi West 4.6 mph - N/A   Scattered Clouds
8:35 AM 46.4 °F 45.2 °F 39.2 °F 76% 30.09 in 10.0 mi WSW 3.5 mph - N/A   Scattered Clouds
8:55 AM 48.2 °F - 39.2 °F 71% 30.09 in 10.0 mi West 5.8 mph - N/A   Clear
9:15 AM 48.2 °F - 39.2 °F 71% 30.10 in 10.0 mi WSW 5.8 mph - N/A   Clear
9:35 AM 50.0 °F - 39.2 °F 66% 30.10 in 10.0 mi WNW 3.5 mph - N/A   Clear
9:55 AM 50.0 °F - 37.4 °F 62% 30.10 in 10.0 mi West 6.9 mph - N/A   Scattered Clouds
10:15 AM 50.0 °F - 37.4 °F 62% 30.10 in 10.0 mi West 8.1 mph - N/A   Scattered Clouds
10:35 AM 51.8 °F - 35.6 °F 54% 30.10 in 10.0 mi NW 9.2 mph - N/A   Scattered Clouds
10:55 AM 50.0 °F - 33.8 °F 54% 30.10 in 10.0 mi WNW 6.9 mph - N/A   Scattered Clouds
11:15 AM 51.8 °F - 35.6 °F 54% 30.10 in 10.0 mi NNW 6.9 mph - N/A   Scattered Clouds
11:35 AM 51.8 °F - 32.0 °F 47% 30.11 in 10.0 mi WSW 8.1 mph - N/A   Scattered Clouds
11:55 AM 53.6 °F - 33.8 °F 47% 30.11 in 10.0 mi West 9.2 mph - N/A   Scattered Clouds
12:15 PM 53.6 °F - 33.8 °F 47% 30.11 in 10.0 mi West 8.1 mph 16.1 mph N/A   Mostly Cloudy
12:35 PM 51.8 °F - 32.0 °F 47% 30.11 in 10.0 mi WNW 12.7 mph 16.1 mph N/A   Scattered Clouds
12:55 PM 53.6 °F - 33.8 °F 47% 30.11 in 10.0 mi WSW 8.1 mph - N/A   Scattered Clouds
1:15 PM 55.4 °F - 32.0 °F 41% 30.11 in 10.0 mi NW 12.7 mph 16.1 mph N/A   Scattered Clouds
1:35 PM 55.4 °F - 32.0 °F 41% 30.11 in 10.0 mi WNW 12.7 mph 19.6 mph N/A   Scattered Clouds
1:55 PM 55.4 °F - 30.2 °F 38% 30.11 in 10.0 mi West 12.7 mph 18.4 mph N/A   Scattered Clouds
2:15 PM 55.4 °F - 28.4 °F 36% 30.11 in 10.0 mi NW 9.2 mph 12.7 mph N/A   Scattered Clouds
2:35 PM 55.4 °F - 32.0 °F 41% 30.11 in 10.0 mi West 12.7 mph 18.4 mph N/A   Scattered Clouds
2:55 PM 57.2 °F - 30.2 °F 36% 30.11 in 10.0 mi WNW 11.5 mph 20.7 mph N/A   Scattered Clouds
3:15 PM 57.2 °F - 30.2 °F 36% 30.10 in 10.0 mi West 15.0 mph - N/A   Scattered Clouds
3:35 PM 57.2 °F - 30.2 °F 36% 30.10 in 10.0 mi WNW 17.3 mph - N/A   Scattered Clouds
3:55 PM 57.2 °F - 32.0 °F 38% 30.10 in 10.0 mi West 10.4 mph - N/A   Mostly Cloudy
4:15 PM 55.4 °F - 30.2 °F 38% 30.09 in 10.0 mi West 8.1 mph - N/A   Mostly Cloudy
4:35 PM 59.0 °F - 30.2 °F 34% 30.09 in 10.0 mi West 13.8 mph 19.6 mph N/A   Scattered Clouds
4:55 PM 57.2 °F - 30.2 °F 36% 30.09 in 10.0 mi West 6.9 mph 20.7 mph N/A   Mostly Cloudy
5:15 PM 59.0 °F - 30.2 °F 34% 30.09 in 10.0 mi West 12.7 mph 16.1 mph N/A   Scattered Clouds
5:35 PM 59.0 °F - 30.2 °F 34% 30.09 in 10.0 mi NW 9.2 mph - N/A   Scattered Clouds
5:55 PM 57.2 °F - 30.2 °F 36% 30.09 in 10.0 mi NW 6.9 mph - N/A   Scattered Clouds
6:15 PM 57.2 °F - 30.2 °F 36% 30.09 in 10.0 mi WNW 11.5 mph - N/A   Scattered Clouds
6:35 PM 55.4 °F - 28.4 °F 36% 30.09 in 10.0 mi WNW 9.2 mph - N/A   Scattered Clouds
6:55 PM 57.2 °F - 30.2 °F 36% 30.09 in 10.0 mi WNW 9.2 mph - N/A   Scattered Clouds
7:15 PM 55.4 °F - 32.0 °F 41% 30.09 in 10.0 mi WNW 6.9 mph - N/A   Scattered Clouds
7:35 PM 55.4 °F - 32.0 °F 41% 30.09 in 10.0 mi NW 8.1 mph - N/A   Scattered Clouds
7:55 PM 53.6 °F - 32.0 °F 44% 30.10 in 10.0 mi WNW 4.6 mph - N/A   Scattered Clouds
8:15 PM 51.8 °F - 33.8 °F 50% 30.10 in 10.0 mi WNW 4.6 mph - N/A   Clear
8:35 PM 51.8 °F - 32.0 °F 47% 30.10 in 10.0 mi WNW 6.9 mph - N/A   Clear
8:55 PM 50.0 °F - 32.0 °F 50% 30.10 in 10.0 mi West 5.8 mph - N/A   Clear
9:15 PM 50.0 °F - 32.0 °F 50% 30.11 in 10.0 mi West 3.5 mph - N/A   Clear
9:35 PM 48.2 °F - 32.0 °F 54% 30.12 in 10.0 mi West 5.8 mph - N/A   Clear
9:55 PM 48.2 °F - 32.0 °F 54% 30.13 in 10.0 mi West 6.9 mph - N/A   Clear
10:15 PM 48.2 °F - 32.0 °F 54% 30.14 in 10.0 mi West 4.6 mph - N/A   Clear
10:35 PM 48.2 °F - 32.0 °F 54% 30.15 in 10.0 mi West 4.6 mph - N/A   Scattered Clouds
10:55 PM 46.4 °F 44.3 °F 32.0 °F 57% 30.15 in 10.0 mi WSW 4.6 mph - N/A   Clear
11:15 PM 46.4 °F 44.3 °F 32.0 °F 57% 30.15 in 10.0 mi WSW 4.6 mph - N/A   Clear
11:35 PM 46.4 °F 44.3 °F 32.0 °F 57% 30.15 in 10.0 mi WSW 4.6 mph - N/A   Clear
11:55 PM 44.6 °F - 32.0 °F 61% 30.15 in 10.0 mi Calm Calm - N/A   Clear